Location: Unspecified
(0.0000°N, 0.0000°E)
Time: 22:45:49
(UTC+00:00)

Vanguard 2 - Pass Details

Date: 03 October 2020
Orbit: 554 x 2937 km, 32.9° (Epoch: 27 October)

Event Time Altitude Azimuth Distance (km) Brightness Sun altitude
Rises 16:47:45 0° 223° (SW) 4,778 12.4 15.2°
Reaches altitude 10° 16:56:01 10° 185° (S) 4,568 11.6 13.2°
Maximum altitude 16:57:44 10° 177° (S) 4,683 11.6 12.7°
Drops below altitude 10° 16:59:33 10° 169° (S) 4,850 11.6 12.3°
Sets 17:10:54 0° 134° (SE) 6,531 11.9 9.5°
